PRAETORIAN SDA_616

导读

PRAETORIAN SDA_617是一颗由美国发射的军事用途卫星,于2025年9月10日在美国加利福尼亚州空军西部试验场发射升空,当前处于运行状态。该卫星与同系列的多颗PRAETORIAN卫星一同发射入轨,运行在近极轨道区域,平均轨道高度约952公里,属于美国太空发展体系部署的卫星星座组成部分,服务于军事太空任务需求。

Basic Information
目录编号:
65580
目录名称:
PRAETORIAN SDA_617
国际标识:
2025-203R
轨道中心:
EARTH
卫星名称:
PRAETORIAN SDA_617
卫星全名:
PRAETORIAN SDA_616
卫星状态:
在轨 (已飞行280 天)
发射日期:
2025-09-10 UTC
国别 :
美国 (US)
星等 :
--
Orbit Information
数据来源 国际轨道数据 AOE轨道数据
星历时间 2026-06-17T20:16:18+0800
9小时前
查看轨道信息
2026-06-17T14:00:00+0800
16小时前
查看轨道信息
半长轴 7330.873km 7330.871km
偏心率 0.0007274 0.0006885
轨道倾角 81.304° 81.305°
近地点辐角 183.116° 184.961°
升交点赤经 10.608° 10.850°
平近点角 176.995° 314.675°
近地点 947.403km 947.686km
远地点 958.069km 957.782km
周期 104.110分钟 104.110分钟
每日圈数 13.8315 13.831504
Detailed Information
使用方式:
暂无
2D Orbit Map
3D Orbit Map
Orbit Altitude Analysis Chart
Orbit Inclination Analysis Chart
Orbit Comprehensive Analysis Chart
View Comprehensive Chart